| time (UTC) | temp F | wind direction | speed knots | gust knots | rain 1hr in | rain 24hr in | rain mn in | humidity % | barometer mb |
| 20260508140903 | 56 | 142 | 2.6 | 8.7 | 0.00 | 0.06 | 0.01 | 67 | 1017.5 |
| 20260508140003 | 56 | 138 | 2.6 | 8.7 | 0.00 | 0.06 | 0.01 | 66 | 1017.5 |
| 20260508135403 | 56 | 140 | 2.6 | 8.7 | 0.00 | 0.06 | 0.01 | 67 | 1017.5 |
| 20260508134503 | 56 | 139 | 3.5 | 8.7 | 0.00 | 0.06 | 0.01 | 68 | 1017.5 |
| 20260508133603 | 56 | 140 | 2.6 | 11.3 | 0.00 | 0.06 | 0.01 | 69 | 1017.4 |
| 20260508132918 | 56 | 140 | 3.5 | 11.3 | 0.00 | 0.06 | 0.01 | 70 | 1017.4 |
| 20260508131804 | 56 | 125 | 3.5 | 12.2 | 0.00 | 0.06 | 0.01 | 71 | 1017.4 |
| 20260508131117 | 56 | 134 | 3.5 | 13.0 | 0.00 | 0.06 | 0.01 | 71 | 1017.1 |
| 20260508130218 | 56 | 125 | 3.5 | 11.3 | 0.00 | 0.06 | 0.01 | 71 | 1017.1 |
| 20260508124503 | 55 | 125 | 2.6 | 11.3 | 0.00 | 0.06 | 0.01 | 73 | 1016.8 |
| 20260508123603 | 55 | 122 | 2.6 | 8.7 | 0.00 | 0.06 | 0.01 | 74 | 1017.1 |
| 20260508122918 | 54 | 125 | 2.6 | 11.3 | 0.00 | 0.05 | 0.00 | 74 | 1017.2 |
| 20260508121803 | 54 | 129 | 2.6 | 7.0 | 0.00 | 0.06 | 0.00 | 74 | 1017.1 |
| 20260508120903 | 54 | 131 | 1.7 | 7.0 | 0.00 | 0.06 | 0.00 | 74 | 1016.8 |
| 20260508120218 | 54 | 129 | 1.7 | 6.1 | 0.00 | 0.06 | 0.00 | 74 | 1016.9 |
| 20260508113603 | 53 | 136 | 1.7 | 6.1 | 0.00 | 0.06 | 0.00 | 75 | 1016.8 |
| 20260508112919 | 53 | 143 | 0.9 | 4.3 | 0.00 | 0.16 | 0.00 | 76 | 1016.8 |
| 20260508111804 | 53 | 145 | 1.7 | 8.7 | 0.00 | 0.17 | 0.00 | 76 | 1016.7 |
| 20260508110903 | 53 | 139 | 1.7 | 12.2 | 0.00 | 0.17 | 0.00 | 76 | 1016.7 |
| 20260508110005 | 53 | 130 | 1.7 | 6.1 | 0.00 | 0.17 | 0.00 | 76 | 1016.5 |
| 20260508105403 | 53 | 143 | 1.7 | 6.1 | 0.00 | 0.17 | 0.00 | 76 | 1016.5 |
| 20260508104716 | 53 | 140 | 1.7 | 8.7 | 0.00 | 0.17 | 0.00 | 76 | 1016.6 |
| 20260508103603 | 53 | 138 | 1.7 | 8.7 | 0.00 | 0.17 | 0.00 | 78 | 1016.5 |
| 20260508102703 | 53 | 142 | 1.7 | 11.3 | 0.00 | 0.17 | 0.00 | 78 | 1016.5 |
| 20260508101803 | 53 | 142 | 1.7 | 6.1 | 0.00 | 0.17 | 0.00 | 77 | 1016.4 |
| 20260508101118 | 53 | 140 | 1.7 | 8.7 | 0.00 | 0.17 | 0.00 | 77 | 1016.2 |
| 20260508100004 | 53 | 147 | 1.7 | 7.0 | 0.00 | 0.17 | 0.00 | 77 | 1016.4 |
| 20260508095403 | 53 | 143 | 2.6 | 8.7 | 0.00 | 0.17 | 0.00 | 77 | 1016.4 |
| 20260508094503 | 53 | 156 | 1.7 | 7.0 | 0.00 | 0.17 | 0.00 | 79 | 1016.4 |
| 20260508093603 | 53 | 149 | 0.9 | 4.3 | 0.00 | 0.17 | 0.00 | 79 | 1016.4 |
| 20260508092703 | 53 | 148 | 0.9 | 6.1 | 0.00 | 0.17 | 0.00 | 79 | 1016.4 |
| 20260508091803 | 53 | 160 | 1.7 | 4.3 | 0.00 | 0.20 | 0.00 | 80 | 1016.3 |
| 20260508090903 | 53 | 145 | 0.9 | 3.5 | 0.00 | 0.21 | 0.00 | 81 | 1015.9 |
| 20260508090003 | 53 | 149 | 0.9 | 4.3 | 0.00 | 0.21 | 0.00 | 81 | 1016.1 |
| 20260508085403 | 53 | 151 | 0.9 | 4.3 | 0.00 | 0.21 | 0.00 | 82 | 1015.9 |
| 20260508084503 | 53 | 179 | 1.7 | 4.3 | 0.00 | 0.21 | 0.00 | 83 | 1015.9 |
| 20260508083817 | 52 | 186 | 2.6 | 6.1 | 0.00 | 0.21 | 0.00 | 84 | 1016.0 |
| 20260508082703 | 52 | 179 | 1.7 | 4.3 | 0.00 | 0.21 | 0.00 | 84 | 1015.9 |
| 20260508081804 | 52 | 174 | 1.7 | 4.3 | 0.00 | 0.21 | 0.00 | 85 | 1015.8 |
| 20260508080903 | 51 | 170 | 1.7 | 4.3 | 0.00 | 0.21 | 0.00 | 85 | 1015.8 |
| 20260508080004 | 51 | 177 | 0.9 | 3.5 | 0.00 | 0.21 | 0.00 | 86 | 1015.7 |
| 20260508075403 | 51 | 174 | 0.9 | 3.5 | 0.00 | 0.21 | 0.00 | 86 | 1015.3 |
| 20260508074503 | 50 | 160 | 0.9 | 3.5 | 0.00 | 0.21 | 0.00 | 86 | 1015.3 |
| 20260508073603 | 50 | 166 | 0.9 | 3.5 | 0.00 | 0.21 | 0.00 | 87 | 1015.3 |
| 20260508072704 | 50 | 156 | 0.9 | 3.5 | 0.00 | 0.21 | 0.00 | 87 | 1015.1 |
| 20260508071804 | 49 | 110 | 0.0 | 2.6 | 0.00 | 0.21 | 0.00 | 87 | 1015.0 |
| 20260508070903 | 49 | 110 | 0.0 | 2.6 | 0.00 | 0.21 | 0.00 | 87 | 1015.1 |
| 20260508070005 | 49 | 110 | 0.0 | 0.9 | 0.00 | 0.21 | 0.00 | 87 | 1015.0 |
| 20260508065620 | 48 | 110 | 0.0 | 0.9 | 0.00 | 0.21 | 0.00 | 87 | 1014.9 |
| 20260508064503 | 48 | 110 | 0.0 | 2.6 | 0.00 | 0.22 | 0.00 | 87 | 1014.7 |
| 20260508063603 | 48 | 110 | 0.0 | 0.9 | 0.00 | 0.22 | 0.00 | 87 | 1014.7 |
| 20260508062703 | 48 | 110 | 0.0 | 0.9 | 0.00 | 0.24 | 0.00 | 87 | 1014.5 |
| 20260508061804 | 47 | 110 | 0.0 | 0.9 | 0.00 | 0.24 | 0.00 | 87 | 1014.3 |
| 20260508060903 | 47 | 110 | 0.0 | 0.9 | 0.00 | 0.24 | 0.00 | 87 | 1014.5 |
| 20260508060217 | 47 | 110 | 0.0 | 0.9 | 0.00 | 0.24 | 0.00 | 87 | 1014.1 |
| 20260508055404 | 47 | 110 | 0.0 | 0.9 | 0.00 | 0.24 | 0.00 | 86 | 1014.3 |
| 20260508054504 | 47 | 110 | 0.0 | 0.9 | 0.00 | 0.24 | 0.00 | 86 | 1014.0 |
| 20260508053603 | 47 | 110 | 0.0 | 0.9 | 0.00 | 0.24 | 0.00 | 86 | 1014.1 |
| 20260508052703 | 47 | 110 | 0.0 | 0.9 | 0.00 | 0.24 | 0.00 | 86 | 1014.1 |
| 20260508051803 | 47 | 0 | 0.0 | 0.0 | 0.00 | 0.24 | 0.00 | 86 | 1014.0 |
| 20260508050904 | 47 | 0 | 0.0 | 0.0 | 0.00 | 0.25 | 0.00 | 86 | 1014.1 |
| 20260508050003 | 47 | 0 | 0.0 | 0.0 | 0.00 | 0.26 | 0.00 | 86 | 1013.7 |
| 20260508045403 | 47 | 0 | 0.0 | 0.0 | 0.00 | 0.26 | 0.00 | 86 | 1013.7 |
| 20260508044503 | 47 | 0 | 0.0 | 0.0 | 0.00 | 0.26 | 0.00 | 86 | 1013.7 |
| 20260508043604 | 47 | 0 | 0.0 | 0.0 | 0.00 | 0.26 | 0.00 | 86 | 1013.8 |
| 20260508042919 | 47 | 0 | 0.0 | 0.0 | 0.00 | 0.26 | 0.00 | 86 | 1013.6 |
| 20260508041803 | 48 | 0 | 0.0 | 0.0 | 0.00 | 0.26 | 0.00 | 86 | 1013.9 |
| 20260508041117 | 48 | 0 | 0.0 | 0.0 | 0.00 | 0.26 | 0.00 | 86 | 1013.6 |
| 20260508040004 | 48 | 0 | 0.0 | 0.0 | 0.00 | 0.26 | 0.00 | 86 | 1013.4 |
| 20260508035403 | 48 | 0 | 0.0 | 0.0 | 0.00 | 0.26 | 0.00 | 86 | 1013.6 |
| 20260508034718 | 48 | 0 | 0.0 | 0.0 | 0.00 | 0.26 | 0.00 | 86 | 1013.6 |
| 20260508033819 | 48 | 0 | 0.0 | 0.0 | 0.00 | 0.27 | 0.00 | 86 | 1013.5 |
| 20260508032703 | 48 | 110 | 0.0 | 0.9 | 0.00 | 0.30 | 0.00 | 86 | 1013.5 |
| 20260508031803 | 48 | 110 | 0.0 | 0.9 | 0.00 | 0.30 | 0.00 | 86 | 1013.5 |
| 20260508030903 | 48 | 0 | 0.0 | 0.0 | 0.00 | 0.30 | 0.00 | 86 | 1013.4 |
| 20260508030003 | 49 | 0 | 0.0 | 0.0 | 0.00 | 0.30 | 0.00 | 86 | 1013.5 |
| 20260508025403 | 49 | 0 | 0.0 | 0.0 | 0.00 | 0.30 | 0.00 | 86 | 1013.5 |
| 20260508024503 | 49 | 0 | 0.0 | 0.0 | 0.00 | 0.30 | 0.00 | 86 | 1013.4 |
| 20260508023603 | 49 | 0 | 0.0 | 0.0 | 0.00 | 0.30 | 0.00 | 86 | 1013.6 |
| 20260508022703 | 49 | 0 | 0.0 | 0.0 | 0.00 | 0.30 | 0.00 | 86 | 1013.5 |
| 20260508021803 | 49 | 0 | 0.0 | 0.9 | 0.00 | 0.30 | 0.00 | 86 | 1013.2 |
| 20260508020903 | 49 | 110 | 0.0 | 0.9 | 0.00 | 0.30 | 0.00 | 86 | 1013.3 |
| 20260508020004 | 49 | 110 | 0.0 | 0.9 | 0.00 | 0.30 | 0.00 | 86 | 1012.9 |
| 20260508015403 | 49 | 110 | 0.0 | 0.9 | 0.00 | 0.30 | 0.00 | 86 | 1013.1 |
| 20260508014503 | 49 | 110 | 0.0 | 2.6 | 0.00 | 0.30 | 0.00 | 86 | 1013.1 |
| 20260508013603 | 49 | 0 | 0.0 | 0.0 | 0.00 | 0.30 | 0.00 | 86 | 1013.1 |
| 20260508012703 | 49 | 0 | 0.0 | 0.9 | 0.00 | 0.30 | 0.00 | 86 | 1013.2 |
| 20260508011803 | 49 | 0 | 0.0 | 0.0 | 0.00 | 0.30 | 0.00 | 86 | 1013.2 |
| 20260508010903 | 49 | 0 | 0.0 | 0.0 | 0.00 | 0.30 | 0.00 | 86 | 1013.2 |
| 20260508010003 | 49 | 0 | 0.0 | 0.0 | 0.00 | 0.30 | 0.00 | 86 | 1013.1 |
| 20260508005403 | 49 | 0 | 0.0 | 0.0 | 0.00 | 0.30 | 0.00 | 86 | 1013.3 |
| 20260508004504 | 49 | 0 | 0.0 | 0.0 | 0.00 | 0.30 | 0.00 | 86 | 1013.2 |
| 20260508003603 | 49 | 45 | 0.0 | 0.9 | 0.00 | 0.30 | 0.00 | 86 | 1012.9 |
| 20260508002703 | 50 | 45 | 0.0 | 0.9 | 0.00 | 0.30 | 0.00 | 86 | 1013.2 |
| 20260508002017 | 50 | 0 | 0.0 | 0.0 | 0.00 | 0.30 | 0.00 | 86 | 1013.2 |
| 20260508000903 | 50 | 0 | 0.0 | 0.0 | 0.00 | 0.30 | 0.00 | 86 | 1013.1 |
| 20260508000003 | 50 | 0 | 0.0 | 0.0 | 0.00 | 0.30 | 0.00 | 86 | 1012.9 |
| 20260507235403 | 50 | 0 | 0.0 | 0.0 | 0.00 | 0.30 | 0.00 | 86 | 1012.9 |
| 20260507234718 | 50 | 0 | 0.0 | 0.0 | 0.00 | 0.30 | 0.00 | 86 | 1012.9 |
| 20260507233603 | 50 | 0 | 0.0 | 0.0 | 0.00 | 0.30 | 0.00 | 86 | 1013.0 |
| 20260507232703 | 50 | 0 | 0.0 | 0.9 | 0.00 | 0.30 | 0.00 | 86 | 1013.0 |
| 20260507231804 | 50 | 0 | 0.0 | 0.0 | 0.00 | 0.30 | 0.00 | 86 | 1013.0 |
| 20260507230903 | 50 | 0 | 0.0 | 0.0 | 0.00 | 0.30 | 0.00 | 85 | 1012.9 |
| 20260507230005 | 51 | 0 | 0.0 | 0.0 | 0.00 | 0.93 | 0.00 | 85 | 1013.1 |
| 20260507225616 | 51 | 0 | 0.0 | 0.0 | 0.00 | 0.93 | 0.93 | 85 | 1012.8 |
| 20260507224504 | 51 | 0 | 0.0 | 0.0 | 0.00 | 0.93 | 0.93 | 85 | 1012.9 |
| 20260507223603 | 51 | 0 | 0.0 | 0.0 | 0.00 | 0.93 | 0.93 | 85 | 1012.9 |
| 20260507222703 | 51 | 44 | 0.0 | 0.9 | 0.00 | 0.93 | 0.93 | 85 | 1012.8 |
| 20260507221803 | 51 | 45 | 0.0 | 0.9 | 0.00 | 0.93 | 0.93 | 85 | 1012.9 |
| 20260507220903 | 51 | 44 | 0.0 | 0.9 | 0.00 | 0.93 | 0.93 | 85 | 1012.7 |
| 20260507220003 | 51 | 44 | 0.0 | 0.9 | 0.00 | 0.93 | 0.93 | 85 | 1012.6 |
| 20260507215403 | 51 | 44 | 0.0 | 0.9 | 0.00 | 0.93 | 0.93 | 85 | 1012.8 |
| 20260507214503 | 51 | 44 | 0.0 | 0.9 | 0.00 | 0.93 | 0.93 | 85 | 1012.8 |
| 20260507213603 | 51 | 44 | 0.9 | 2.6 | 0.00 | 0.93 | 0.93 | 85 | 1012.7 |
| 20260507212703 | 51 | 45 | 0.0 | 0.9 | 0.00 | 0.93 | 0.93 | 84 | 1012.7 |
| 20260507212017 | 51 | 45 | 0.0 | 0.9 | 0.00 | 0.93 | 0.93 | 84 | 1012.6 |
| 20260507210903 | 51 | 0 | 0.0 | 0.0 | 0.00 | 0.93 | 0.93 | 84 | 1012.5 |
| 20260507210003 | 51 | 45 | 0.0 | 0.9 | 0.00 | 0.93 | 0.93 | 84 | 1012.5 |
| 20260507205403 | 52 | 0 | 0.0 | 0.0 | 0.00 | 0.93 | 0.93 | 84 | 1012.5 |
| 20260507204717 | 52 | 0 | 0.0 | 0.0 | 0.00 | 0.93 | 0.93 | 84 | 1012.3 |
| 20260507203604 | 52 | 0 | 0.0 | 0.0 | 0.00 | 0.93 | 0.93 | 83 | 1012.2 |
| 20260507202918 | 52 | 0 | 0.0 | 0.9 | 0.00 | 0.93 | 0.93 | 83 | 1012.1 |
| 20260507202017 | 52 | 0 | 0.0 | 0.0 | 0.00 | 0.93 | 0.93 | 83 | 1012.0 |
| 20260507201118 | 52 | 0 | 0.0 | 0.0 | 0.00 | 0.93 | 0.93 | 83 | 1012.1 |
| 20260507200003 | 52 | 0 | 0.0 | 0.0 | 0.00 | 0.93 | 0.93 | 83 | 1012.0 |
| 20260507195403 | 52 | 0 | 0.0 | 0.0 | 0.00 | 0.93 | 0.93 | 83 | 1011.9 |
| 20260507194503 | 52 | 45 | 0.0 | 0.9 | 0.00 | 0.93 | 0.93 | 83 | 1011.9 |
| 20260507193603 | 53 | 45 | 0.9 | 2.6 | 0.00 | 0.93 | 0.93 | 82 | 1011.5 |
| 20260507192703 | 53 | 45 | 0.0 | 0.9 | 0.00 | 0.93 | 0.93 | 82 | 1011.9 |
| 20260507192017 | 53 | 45 | 0.0 | 0.9 | 0.00 | 0.93 | 0.93 | 82 | 1011.8 |
| 20260507190904 | 53 | 0 | 0.0 | 0.0 | 0.02 | 0.92 | 0.92 | 82 | 1011.5 |
| 20260507190004 | 53 | 45 | 0.0 | 0.9 | 0.02 | 0.92 | 0.92 | 82 | 1011.6 |
| 20260507185403 | 53 | 45 | 0.0 | 0.9 | 0.02 | 0.92 | 0.92 | 81 | 1011.6 |
| 20260507184718 | 54 | 45 | 0.0 | 2.6 | 0.02 | 0.92 | 0.92 | 81 | 1011.7 |
| 20260507183818 | 54 | 0 | 0.0 | 0.0 | 0.02 | 0.92 | 0.92 | 81 | 1011.4 |
| 20260507182704 | 54 | 0 | 0.0 | 0.0 | 0.02 | 0.92 | 0.92 | 80 | 1011.1 |
| 20260507181803 | 54 | 45 | 0.0 | 0.9 | 0.02 | 0.92 | 0.92 | 80 | 1011.2 |
| 20260507180903 | 55 | 45 | 0.0 | 2.6 | 0.00 | 0.90 | 0.90 | 80 | 1011.2 |
| 20260507180003 | 55 | 49 | 1.7 | 4.3 | 0.00 | 0.90 | 0.90 | 80 | 1011.4 |
| 20260507175403 | 55 | 45 | 2.6 | 7.0 | 0.00 | 0.90 | 0.90 | 80 | 1011.2 |
| 20260507174503 | 56 | 25 | 1.7 | 7.0 | 0.00 | 0.90 | 0.90 | 80 | 1011.2 |
| 20260507173603 | 56 | 42 | 0.9 | 3.5 | 0.00 | 0.90 | 0.90 | 80 | 1011.2 |
| 20260507172916 | 56 | 44 | 0.9 | 3.5 | 0.00 | 0.90 | 0.90 | 80 | 1011.0 |
| 20260507171804 | 56 | 18 | 1.7 | 6.1 | 0.01 | 0.90 | 0.90 | 80 | 1011.2 |
| 20260507171117 | 56 | 2 | 2.6 | 6.1 | 0.01 | 0.90 | 0.90 | 80 | 1011.0 |